[TLELIST] Archives

 

[TLELIST] Current TLEs

April 22nd 2023 PDT

HST 1 20580U 90037B 23111.79192543 .00006055 00000-0 32555-3 0 9991 2 20580 28.4691 283.1275 0002832 120.9189 262.3599 15.12808363612912 ISS (ZARYA) 1 25544U 98067A 23112.16353009 .00019726 00000-0 35140-3 0 9997 2 25544 51.6398 246.1769 0006058 221.9747 134.2867 15.50096219393093 CXO 1 25867U 99040B 23112.42851458 .00000730 00000-0 00000+0 0 9995 2 25867 38.1893 204.0110 9044177 256.5414 359.9006 0.37809964 24126 ...Continue Reading

[TLELIST] Current TLEs

April 22nd 2023 PDT

HST 1 20580U 90037B 23111.79192543 .00006055 00000-0 32555-3 0 9991 2 20580 28.4691 283.1275 0002832 120.9189 262.3599 15.12808363612912 ISS (ZARYA) 1 25544U 98067A 23112.16353009 .00019726 00000-0 35140-3 0 9997 2 25544 51.6398 246.1769 0006058 221.9747 134.2867 15.50096219393093 CXO 1 25867U 99040B 23112.42851458 .00000730 00000-0 00000+0 0 9995 2 25867 38.1893 204.0110 9044177 256.5414 359.9006 0.37809964 24126 ...Continue Reading

[TLELIST] Current TLEs

April 21st 2023 PDT

HST 1 20580U 90037B 23110.80190485 .00006510 00000-0 35087-3 0 9994 2 20580 28.4691 289.7099 0002871 111.4560 269.3621 15.12796804612761 ISS (ZARYA) 1 25544U 98067A 23111.47001403 .00017360 00000-0 31065-3 0 9992 2 25544 51.6391 249.6155 0006190 218.6359 225.0344 15.50062753392995 CXO 1 25867U 99040B 23112.42851458 .00000730 00000-0 00000+0 0 9995 2 25867 38.1893 204.0110 9044177 256.5414 359.9006 0.37809964 24126 ...Continue Reading

[TLELIST] Current TLEs

April 21st 2023 PDT

HST 1 20580U 90037B 23110.80190485 .00006510 00000-0 35087-3 0 9994 2 20580 28.4691 289.7099 0002871 111.4560 269.3621 15.12796804612761 ISS (ZARYA) 1 25544U 98067A 23111.47001403 .00017360 00000-0 31065-3 0 9992 2 25544 51.6391 249.6155 0006190 218.6359 225.0344 15.50062753392995 CXO 1 25867U 99040B 23112.42851458 .00000730 00000-0 00000+0 0 9995 2 25867 38.1893 204.0110 9044177 256.5414 359.9006 0.37809964 24126 ...Continue Reading

[TLELIST] Current TLEs

April 20th 2023 PDT

HST 1 20580U 90037B 23110.23447678 .00006462 00000-0 34831-3 0 9992 2 20580 28.4691 293.4820 0002883 106.5893 57.8411 15.12789599612942 ISS (ZARYA) 1 25544U 98067A 23110.43007450 .00021693 00000-0 38641-3 0 9996 2 25544 51.6397 254.7694 0006141 215.2286 181.5841 15.50031843392831 CXO 1 25867U 99040B 23109.78535750 .00000756 00000-0 00000-0 0 9993 2 25867 38.2311 204.3839 9040923 256.2348 0.1021 0.37809690 12968 ...Continue Reading

[TLELIST] Current TLEs

April 19th 2023 PDT

HST 1 20580U 90037B 23108.91039937 .00007369 00000-0 39876-3 0 9990 2 20580 28.4691 302.2865 0002903 93.3893 45.7623 15.12773339612470 ISS (ZARYA) 1 25544U 98067A 23109.39970694 .00019424 00000-0 34748-3 0 9991 2 25544 51.6384 259.8731 0006437 211.4949 192.0399 15.49984871392670 CXO 1 25867U 99040B 23109.78535750 .00000756 00000-0 00000-0 0 9993 2 25867 38.2311 204.3839 9040923 256.2348 0.1021 0.37809690 12968 ...Continue Reading

[TLELIST] Current TLEs

April 18th 2023 PDT

HST 1 20580U 90037B 23107.90072144 .00007505 00000-0 40647-3 0 9995 2 20580 28.4690 309.0006 0002905 84.9241 304.6337 15.12759782612325 ISS (ZARYA) 1 25544U 98067A 23108.43397694 .00019322 00000-0 34619-3 0 9992 2 25544 51.6395 264.6579 0006032 207.9800 203.3391 15.49946793392526 CXO 1 25867U 99040B 23109.78535750 .00000756 00000-0 00000-0 0 9993 2 25867 38.2311 204.3839 9040923 256.2348 0.1021 0.37809690 12968 ...Continue Reading

[TLELIST] Current TLEs

April 17th 2023 PDT

HST 1 20580U 90037B 23106.91133583 .00007548 00000-0 40900-3 0 9999 2 20580 28.4695 315.5791 0002920 74.9301 315.8119 15.12745350612177 ISS (ZARYA) 1 25544U 98067A 23107.36543405 .00025321 00000-0 45141-3 0 9994 2 25544 51.6394 269.9491 0006143 202.1589 3.0440 15.49911273392356 CXO 1 25867U 99040B 23107.14291298 .00000918 00000-0 00000-0 0 9997 2 25867 38.2674 204.7112 9036591 255.9734 0.3530 0.37811184 12956 ...Continue Reading

[TLELIST] Current TLEs

April 17th 2023 PDT

HST 1 20580U 90037B 23106.91133583 .00007548 00000-0 40900-3 0 9999 2 20580 28.4695 315.5791 0002920 74.9301 315.8119 15.12745350612177 ISS (ZARYA) 1 25544U 98067A 23107.36543405 .00025321 00000-0 45141-3 0 9994 2 25544 51.6394 269.9491 0006143 202.1589 3.0440 15.49911273392356 CXO 1 25867U 99040B 23107.14291298 .00000918 00000-0 00000-0 0 9997 2 25867 38.2674 204.7112 9036591 255.9734 0.3530 0.37811184 12956 ...Continue Reading

[TLELIST] Current TLEs

April 16th 2023 PDT

HST 1 20580U 90037B 23105.92127911 .00007211 00000-0 39047-3 0 9994 2 20580 28.4699 322.1610 0002939 65.3447 322.9719 15.12730696612026 ISS (ZARYA) 1 25544U 98067A 23106.44441399 .00017449 00000-0 31442-3 0 9992 2 25544 51.6393 274.5104 0006267 198.4423 264.4312 15.49861092392218 CXO 1 25867U 99040B 23107.14291298 .00000918 00000-0 00000-0 0 9997 2 25867 38.2674 204.7112 9036591 255.9734 0.3530 0.37811184 12956 ...Continue Reading
  • This mailing list is a public mailing list - anyone may join or leave, at any time.
  • This mailing list is announce-only.

International Space Station (ISS) / Hubble Space Telescope (HST) / Chandra X-Ray Observatory Orbital Data via EMAIL

Privacy Policy:

Private list